Погода в Нахимовском

Россия / Смоленская область     55°31′39″N   33°45′50″E
темп.,
°C
ветер,
м/с
пор.,
м/с
влажн.,
%
обл.,
%
осадки,
мм/ч
давл.,
гПа
погр.,
м
1 июля, пт
пт100:00+14ссв22750 0.0 102018
03:00+13с22740 0.0 102011
06:00+14ссз36773 0.0 1020121
09:00+20с47665 0.0 1019500
12:00+23св57570 0.0 10191428
15:00+23св566158 0.0 10191201
18:00+21всв5761100 0.0 1020741
21:00+15в47690 0.0 102299
2 июля, сб
сб200:00+11юв336814 0.0 102329
03:00+9ююв22705 0.0 102516
06:00+11ююз22744 0.0 102537
09:00+17зюз22595 0.0 1025322
12:00+21з11474 0.0 1024808
15:00+23з124361 0.0 1023794
18:00+24юз12485 0.0 1021699
21:00+18ююз116678 0.0 102111
3 июля, вс
вс300:00+15з22675 0.0 102113
03:00+14зсз348951 0.0 102151
06:00+16зсз3791100 0.0 1020166
09:00+22сз3574100 0.0 1019392
12:00+26сз235661 0.0 10191151
15:00+28сз244748 0.0 10181994
18:00+28с125641 0.0 10171144
21:00+20ссз337943 0.0 101731
4 июля, пн
пн400:00+17з228411 0.2 101816
03:00+17зсз229011 0.6 101817
06:00+19зсз118893 0.0 101824
09:00+23зюз117458 0.0 1018302
12:00+26з2259100 0.0 1017836
15:00+28з1250100 0.0 10161002
18:00+22ю3483100 0.5 101699
21:00+20юв348813 1.7 101759
5 июля, вт
вт500:00+17юз349385 0.6 101760
03:00+17ююз3594100 0.6 101769
06:00+18юз359474 0.1 1017120
09:00+22зюз468381 1.1 1016228
12:00+25юз466980 2.3 1016721
15:00+26ююз4560100 2.6 10151234
18:00+25юз257660 1.8 1015324
21:00+20зюз338461 3.4 101535